{"data":{"norad_id":82642,"epoch":"2026-09-12T05:01:06.570048Z","epoch_age_seconds":734686,"freshness":"AGED","line1":"1 82642U          26255.20910382  .00000784  00000+0  44812-3 0  9997","line2":"2 82642  98.9644 169.0572 0132411 190.4963 169.3436 14.08179255654614","mean_motion":14.08179255,"eccentricity":0.0132411,"inclination_deg":98.9644,"raan_deg":169.0572,"arg_perigee_deg":190.4963,"mean_anomaly_deg":169.3436,"bstar":0.00044812,"rev_number":65461,"period_min":102.25970840623,"perigee_km":769.69383104989,"apogee_km":961.52416126939,"semimajor_km":7243.7459961596,"source":"CELESTRAK","updated_at":"2026-09-20T09:00:32.437478Z"}}